Wind_Speed
15 15 16 16 17 17 18 19 20 21 21 22 22 23 23 23 23 23 23 22 22 21 20 19 19 18 17 17 17 17 17 17 18 18 19 19 20 21 22 22 23 22 21 21 20 20 19 18 18 18 18 18 17 16 14 13 12 12 11 11 12 10 10 9 7 3 4 5 6 4 1 5 8 12 13 12 10 9 10 8 7 8 8 6 6 8 9 9
17 17 17 17 17 17 17 18 19 20 21 22 23 23 24 24 24 24 24 24 23 23 22 21 20 20 19 19 18 17 17 18 18 19 19 19 19 20 21 22 23 23 22 21 21 21 20 19 18 18 18 18 18 17 15 14 13 13 12 12 12 11 10 10 8 3 4 4 5 5 1 3 6 10 10 10 11 9 8 7 6 7 8 7 7 8 9 8
18 19 19 20 20 20 19 19 19 19 20 22 23 23 24 24 24 25 25 25 24 24 24 23 22 22 21 21 20 19 18 19 19 20 19 19 19 19 20 21 22 23 23 22 22 22 21 20 19 19 19 18 17 17 16 15 15 15 14 12 11 11 10 9 9 5 3 5 4 5 4 2 3 7 9 9 10 11 9 8 6 6 7 7 8 8 8 8
21 21 21 21 22 22 22 22 21 21 20 21 22 23 24 24 24 25 25 25 25 25 25 24 24 23 23 23 22 21 20 21 21 20 19 19 19 18 19 20 21 22 22 22 23 22 22 22 21 20 19 18 17 15 14 16 17 17 16 14 13 12 10 8 9 7 3 4 3 4 4 2 3 7 10 10 11 12 11 10 8 6 6 7 8 8 7 7
24 23 23 23 23 24 24 24 24 24 23 22 22 22 23 24 24 25 25 25 25 25 25 25 24 24 24 24 24 23 22 23 22 21 20 20 19 18 19 19 20 21 21 22 23 23 23 23 22 21 20 19 17 15 15 15 17 17 18 17 17 16 12 10 9 8 6 2 1 2 4 4 4 6 8 9 11 11 10 11 9 6 6 5 7 9 7 6
27 26 26 26 26 26 26 26 26 26 26 26 25 24 24 24 24 24 25 25 25 25 25 25 25 24 24 25 25 24 24 24 24 23 22 21 20 20 19 19 19 20 21 23 23 23 23 23 22 22 21 20 18 17 16 15 15 16 17 17 18 17 14 12 10 8 7 5 2 3 3 3 3 3 3 6 9 10 10 10 8 7 6 5 5 7 7 6
28 29 29 29 29 28 28 28 28 28 28 29 29 28 27 26 25 24 24 25 25 25 25 25 25 24 24 25 25 25 24 24 25 25 24 23 23 22 21 19 18 19 21 22 22 22 22 22 22 23 22 21 20 20 18 16 15 15 15 16 17 17 16 13 10 9 8 7 5 4 1 1 1 2 2 5 7 8 10 9 8 7 6 5 5 6 7 7
29 30 30 30 31 31 31 31 31 30 30 30 31 31 30 29 28 26 26 25 25 25 25 25 25 25 24 25 25 25 24 24 27 28 26 25 24 24 23 20 19 20 21 20 21 21 20 20 21 22 22 21 22 22 20 18 15 14 15 17 18 18 17 16 13 12 11 9 7 5 4 3 3 3 3 4 7 8 10 8 8 8 6 6 5 6 7 7
30 30 31 31 31 32 33 33 33 33 33 33 33 33 33 32 31 30 29 27 27 26 25 25 25 25 24 25 25 24 24 24 27 30 28 27 25 24 24 22 20 21 20 19 19 19 20 21 21 22 23 24 25 25 22 19 18 19 19 19 18 17 18 17 15 15 14 11 9 7 6 5 4 4 5 5 6 8 9 8 8 9 7 6 6 5 7 7
31 32 32 32 32 32 33 34 34 35 35 35 35 35 35 34 34 33 32 31 29 28 27 26 25 25 25 25 25 24 24 24 27 31 31 28 26 25 25 23 22 22 21 19 18 20 22 23 23 24 24 25 26 25 22 20 21 22 21 19 16 15 15 15 15 17 16 13 11 8 7 6 5 5 6 7 7 8 9 8 9 8 6 6 5 5 6 6
32 33 33 33 33 33 33 33 34 35 36 37 37 37 37 36 36 35 35 34 32 31 29 28 27 26 25 25 25 24 23 25 28 32 32 28 26 26 26 25 24 23 22 20 19 21 23 23 24 24 23 22 24 23 21 20 21 22 20 16 14 12 12 10 12 16 16 14 10 9 8 7 7 6 6 8 8 10 10 8 10 9 7 6 6 5 6 6
33 33 33 34 34 34 34 34 35 35 36 37 38 38 38 38 38 37 37 36 35 34 32 30 29 28 27 26 25 24 24 25 27 30 30 28 26 27 27 26 26 25 24 23 22 22 22 23 23 23 22 22 23 22 22 22 21 20 17 14 12 10 10 7 8 13 14 12 9 10 9 6 7 9 8 7 6 8 9 10 11 11 9 8 7 6 6 6
34 33 33 34 34 35 35 36 36 36 36 37 38 38 39 39 39 39 38 38 37 36 34 32 31 30 29 28 27 26 26 25 27 28 28 28 27 27 28 28 27 27 26 25 25 24 23 23 22 23 23 23 22 21 22 23 21 20 17 15 13 10 11 8 7 9 11 11 12 12 10 8 8 9 8 6 6 8 10 11 12 11 10 9 7 6 6 6
34 33 33 33 34 35 36 36 36 36 36 37 38 38 38 38 39 39 39 39 38 38 37 35 33 32 30 30 28 28 27 26 27 27 27 27 27 27 28 28 28 28 28 28 27 26 24 22 22 22 22 22 21 19 20 21 20 19 17 16 13 11 11 10 8 8 9 12 14 13 10 9 9 8 7 6 7 8 9 11 12 12 11 9 8 7 6 5
35 33 32 33 34 35 36 36 36 36 35 36 37 38 37 37 38 38 39 39 39 38 38 37 35 34 32 31 30 29 29 28 27 28 27 26 27 27 28 28 29 29 29 29 28 27 26 24 22 21 20 21 21 19 18 17 16 17 16 14 11 11 11 12 9 6 7 11 13 13 11 10 9 7 7 7 7 8 9 12 13 13 13 11 9 7 6 5
36 34 32 32 34 34 35 35 36 35 35 34 35 36 37 36 36 36 37 38 38 38 38 38 37 36 34 33 32 30 30 29 29 29 28 27 27 27 27 28 28 29 29 29 29 29 28 25 22 21 20 20 20 19 18 16 15 15 15 13 11 11 11 11 9 7 8 9 10 11 10 10 9 8 8 8 6 7 7 11 11 11 13 11 8 7 6 4
37 35 33 33 34 34 34 34 35 35 35 34 33 33 34 35 35 34 35 36 36 37 37 38 38 37 36 35 33 32 31 30 29 30 30 29 28 28 27 27 27 28 29 30 30 30 29 26 24 23 22 20 19 19 17 15 13 14 15 15 14 13 12 11 11 9 8 8 9 9 8 8 8 9 9 9 7 7 7 9 8 9 11 10 8 6 5 4
38 36 35 34 34 34 34 33 34 34 34 34 32 32 32 32 33 33 33 33 34 34 36 37 38 38 38 37 36 34 33 31 30 30 31 30 30 29 28 28 27 28 29 29 29 30 29 28 27 26 24 21 18 16 15 15 15 16 18 20 21 20 17 12 10 10 8 9 10 8 8 6 6 8 9 8 8 8 7 7 8 9 10 9 8 7 6 6
36 35 35 36 36 35 34 33 33 33 33 33 32 31 31 30 30 31 31 32 33 33 34 35 36 37 37 37 36 35 34 33 32 31 31 31 31 30 30 29 28 29 29 29 29 30 30 30 29 27 24 20 17 15 16 18 19 20 21 23 24 24 23 19 13 10 8 9 11 11 10 7 4 5 5 6 7 7 6 5 8 9 9 8 7 7 7 7
34 34 34 35 35 36 35 34 33 32 31 32 31 31 31 30 29 29 29 30 32 32 33 33 34 34 35 35 35 35 35 35 33 33 32 31 31 31 31 31 30 30 29 29 28 29 30 31 29 26 23 22 20 18 19 21 22 22 23 21 22 24 25 24 20 13 8 10 12 13 13 9 5 1 1 2 5 7 7 7 8 8 8 8 8 8 8 8
33 32 32 32 33 33 34 34 33 32 31 30 30 30 31 30 29 29 28 28 29 30 32 33 33 33 33 34 35 35 35 35 34 34 33 32 32 32 32 32 32 31 30 29 29 30 31 30 27 25 25 25 24 22 22 23 24 24 22 19 20 22 24 25 20 13 10 13 13 13 12 10 6 2 3 2 4 7 10 10 10 9 8 8 9 9 9 9
32 31 30 30 29 29 30 31 31 31 30 29 29 29 29 30 30 30 29 28 28 28 30 32 33 34 34 34 35 35 35 35 34 34 34 34 33 32 32 32 32 32 32 31 30 30 30 27 24 25 27 27 27 26 24 24 26 26 25 21 20 21 22 24 20 16 15 16 13 12 10 8 4 2 3 3 6 7 9 11 13 11 9 9 10 11 10 9
31 29 28 27 26 26 27 28 28 28 28 28 27 27 27 28 29 30 30 30 29 28 28 29 31 33 34 35 35 35 35 35 34 34 34 34 34 34 33 32 32 33 33 32 32 31 28 24 23 25 27 28 29 28 27 26 26 26 25 24 21 20 22 23 21 22 22 20 17 14 11 9 8 7 6 7 8 10 10 11 13 13 11 10 11 11 10 9
30 28 26 25 24 23 24 25 25 25 25 25 25 24 24 25 26 27 28 29 30 29 28 28 29 31 33 34 35 35 36 36 35 34 34 35 34 34 34 33 33 32 33 32 33 32 28 25 26 27 28 29 30 30 30 28 27 26 24 23 21 20 22 24 25 25 24 24 21 16 15 15 14 11 9 10 12 12 11 10 12 14 14 12 11 9 8 8
28 27 25 24 23 22 22 22 21 21 21 20 21 22 22 21 22 24 24 25 27 28 28 28 28 29 30 32 34 35 36 36 36 34 35 35 34 33 33 33 33 32 33 33 33 33 30 29 29 28 28 29 30 31 31 30 28 28 24 21 20 19 22 27 28 26 24 25 22 18 18 16 14 13 11 13 14 13 12 10 11 14 14 14 13 10 9 9
27 26 24 22 21 20 20 19 18 17 17 16 16 18 19 18 19 21 22 22 22 24 25 26 26 26 28 29 31 33 35 35 35 34 35 36 35 34 33 34 34 33 33 33 34 33 32 32 31 30 29 29 29 30 31 31 30 29 25 21 20 21 25 30 32 29 25 23 22 22 22 19 17 15 13 15 16 15 13 10 10 13 13 13 14 13 11 9
27 25 23 20 19 19 18 17 16 15 14 14 14 15 16 15 16 18 19 20 19 20 20 22 23 22 25 27 27 29 31 32 33 33 34 36 36 36 36 36 35 35 35 35 35 34 33 33 32 31 30 29 29 29 31 32 32 30 26 23 23 25 29 33 35 34 30 25 24 26 26 25 24 19 16 17 19 18 13 9 8 11 12 12 12 13 12 10
26 25 22 18 17 17 16 16 15 13 13 14 13 13 13 12 14 15 17 17 16 16 17 18 19 19 22 24 25 26 28 29 30 31 33 35 35 36 36 37 36 36 37 36 35 34 34 35 34 33 33 31 30 29 30 32 32 30 28 26 26 29 32 34 36 36 36 31 26 28 30 30 27 22 21 22 23 19 12 8 7 8 11 12 11 12 13 11
25 24 21 16 14 14 15 15 14 13 13 12 11 11 11 12 12 13 15 14 13 15 17 17 18 18 20 21 22 24 26 27 27 27 29 32 33 34 35 37 37 37 37 36 36 35 35 36 36 35 35 34 32 31 31 32 32 30 29 29 29 31 34 36 36 36 39 37 30 28 30 30 28 26 27 26 23 18 11 9 9 8 10 11 10 12 13 13
23 22 18 14 11 12 13 13 13 13 13 11 11 10 10 11 12 12 13 12 13 14 16 17 18 19 19 20 20 22 23 24 23 23 25 28 29 31 34 36 37 38 38 37 35 35 36 36 35 34 34 34 34 33 32 32 32 32 31 31 30 32 35 38 38 38 40 40 34 30 28 29 30 30 30 25 20 16 11 11 11 9 9 10 10 11 12 13
22 19 16 13 12 11 11 11 12 13 13 12 10 9 9 12 13 13 13 14 15 16 17 18 19 18 18 18 19 20 20 19 19 20 22 25 28 30 33 36 37 38 39 38 37 35 35 34 33 34 33 34 34 33 33 33 33 33 34 33 31 32 35 38 40 40 41 40 38 34 31 30 32 33 30 23 18 15 12 13 14 10 8 9 9 10 11 12
20 17 14 14 13 11 10 9 11 12 12 11 10 8 10 14 16 18 18 17 16 16 18 17 13 13 15 16 17 18 19 18 18 19 20 24 28 29 31 33 35 37 39 40 39 36 35 34 32 33 34 35 35 34 34 34 33 33 34 34 34 35 36 38 40 41 40 39 39 38 35 34 35 34 31 25 19 14 11 13 14 12 11 11 10 9 10 11
18 16 14 13 12 10 8 7 8 9 10 10 8 9 13 17 19 20 20 20 17 16 17 14 9 9 13 14 15 16 17 17 16 17 20 23 25 25 27 28 30 33 37 39 39 37 36 35 33 33 35 36 34 33 33 33 34 35 33 34 36 37 38 38 39 39 38 37 39 40 39 38 38 35 32 26 20 16 14 14 14 13 13 13 12 11 11 11
18 16 14 12 10 9 7 6 6 7 8 8 8 11 14 17 20 21 20 19 18 17 15 13 12 12 12 13 15 16 15 15 14 17 20 23 24 24 25 26 27 29 33 35 36 36 36 35 35 36 37 37 34 33 35 35 35 36 36 35 36 37 37 37 36 36 35 36 38 42 42 42 39 34 30 26 23 21 22 22 22 20 18 17 17 16 13 11
17 16 14 11 10 8 6 5 5 5 6 8 9 11 13 14 17 20 19 17 16 15 11 10 12 13 13 14 14 16 17 15 15 17 20 21 23 24 24 25 26 27 30 32 34 35 34 34 37 38 39 40 37 34 35 36 35 35 37 36 35 36 35 35 36 36 35 36 37 42 44 43 39 33 29 28 27 27 26 24 24 23 20 20 19 16 14 11
17 15 13 10 8 6 4 3 3 4 6 7 8 10 13 14 16 17 17 15 13 11 10 10 11 14 16 15 14 17 17 15 14 18 18 18 20 22 22 24 25 26 29 31 32 33 32 33 36 39 39 39 38 35 35 36 34 32 33 33 34 34 32 33 34 35 36 36 35 37 38 37 34 30 28 29 29 29 27 24 23 22 21 21 19 16 15 12
17 14 12 9 7 5 2 2 4 5 6 6 7 9 11 13 15 15 15 13 9 8 12 13 13 16 17 17 17 18 17 14 15 18 18 18 19 21 21 21 23 24 27 29 30 30 31 31 34 37 37 37 37 36 35 35 35 33 30 29 31 32 32 33 33 33 34 34 32 30 29 26 25 22 21 22 22 20 19 20 23 25 25 23 20 19 18 15
15 14 12 10 7 4 2 1 3 4 5 5 6 8 10 11 13 13 13 13 9 9 13 13 12 14 16 18 19 19 18 16 16 18 18 18 20 22 21 21 21 21 23 25 26 27 28 29 31 33 35 37 38 36 33 33 37 37 32 30 30 29 30 33 34 33 31 30 28 24 20 18 19 21 24 22 20 17 13 13 18 24 26 25 22 21 21 20
13 14 14 11 9 6 5 3 0 1 1 2 3 5 8 10 11 11 12 13 13 13 14 14 13 12 14 16 18 20 20 18 17 18 18 19 21 23 23 23 21 20 20 22 24 25 26 27 28 30 32 37 39 37 35 34 36 36 32 31 33 31 30 31 33 33 30 28 24 20 21 20 20 24 28 26 24 24 19 13 13 16 18 20 21 22 23 24
12 14 13 12 11 10 8 7 5 3 3 3 3 3 5 8 10 10 10 13 17 17 16 16 15 13 13 15 18 20 20 16 16 17 17 19 21 22 23 22 20 20 20 20 22 24 25 27 28 28 30 34 36 36 37 36 36 35 33 33 34 34 33 31 30 31 31 30 25 25 25 24 22 25 29 28 27 27 24 17 13 13 13 15 19 22 24 24
11 12 11 11 12 11 10 11 8 5 4 4 4 3 4 6 7 8 9 12 17 18 16 16 15 13 13 15 17 19 17 11 9 10 12 15 17 19 20 19 19 19 20 21 22 23 24 27 29 30 30 32 33 35 37 36 35 36 38 38 36 36 37 34 30 29 30 32 31 30 28 26 24 26 27 26 26 27 26 23 19 17 16 17 19 22 24 25
10 10 10 10 10 9 11 12 9 6 5 4 4 4 4 5 5 7 8 11 14 15 12 11 11 11 12 13 14 14 11 7 6 7 10 12 14 17 17 17 17 18 19 21 22 23 23 25 28 31 32 33 34 36 37 37 36 37 39 41 39 38 40 39 36 33 32 34 35 35 32 29 27 27 26 24 25 26 26 26 24 24 24 24 22 23 25 26
10 9 9 10 9 8 10 9 5 4 5 4 3 3 3 3 3 4 5 7 9 10 7 6 8 9 10 11 12 10 7 7 8 9 9 10 12 14 15 15 15 15 17 19 20 23 24 24 26 31 33 35 36 37 37 38 39 38 39 42 42 40 41 42 41 38 35 33 35 40 40 35 31 29 26 24 26 27 25 26 27 26 25 25 24 24 25 26
9 9 10 10 10 9 9 7 4 3 2 3 3 2 2 2 3 4 5 4 4 5 6 6 7 8 9 9 9 9 9 9 10 10 9 10 12 13 15 15 14 14 15 18 19 21 24 25 26 30 35 37 38 36 37 40 42 40 40 43 45 44 44 44 42 40 37 33 35 42 47 43 37 32 29 27 28 29 29 30 31 28 24 24 25 26 26 27
8 8 8 9 10 9 9 8 7 6 5 3 4 3 1 1 2 4 5 5 4 4 5 7 8 8 8 8 9 12 12 11 12 12 12 13 14 15 16 16 16 16 17 18 20 21 24 27 28 31 36 40 40 38 39 43 44 43 41 43 47 48 46 45 44 43 40 35 35 42 48 48 43 38 34 31 29 29 32 33 34 31 27 25 25 28 30 33
9 8 8 9 9 9 9 9 8 8 7 4 3 3 3 1 1 3 4 5 5 6 6 7 7 8 9 9 10 12 13 13 14 14 14 16 17 18 19 19 19 20 19 20 22 23 25 27 28 32 37 42 44 43 43 45 46 46 44 43 46 49 49 46 45 46 44 39 38 41 46 49 48 45 41 37 32 29 33 38 39 37 31 26 25 27 31 36
11 10 8 8 8 8 9 9 7 6 7 6 4 4 4 4 4 5 6 7 8 8 8 8 9 10 10 10 11 12 13 13 15 15 16 18 20 20 21 21 21 23 23 24 25 25 27 28 29 31 35 40 45 47 47 47 47 47 47 46 47 50 52 49 46 47 47 44 42 42 46 50 50 49 46 41 37 33 32 39 44 41 35 30 28 27 27 30
14 12 9 7 6 6 7 9 7 5 5 6 7 7 7 7 7 8 8 10 10 10 11 11 11 12 12 12 13 14 14 14 15 17 19 20 21 22 23 24 25 25 26 27 28 29 30 31 31 32 33 37 43 48 51 51 50 49 48 47 46 48 51 51 49 48 48 48 46 45 49 53 51 51 50 45 43 36 28 36 46 42 37 36 34 32 29 28
16 15 12 8 6 7 7 8 8 7 6 7 8 8 9 9 10 10 11 11 12 12 13 14 14 14 15 15 15 15 15 15 16 18 19 20 21 22 24 26 27 27 27 28 31 32 33 34 35 36 36 37 41 47 52 54 55 53 52 49 46 45 47 50 52 52 50 50 51 49 51 54 54 54 52 48 50 41 25 32 47 44 40 42 41 39 37 35
17 18 16 13 11 10 9 9 8 8 8 8 8 9 10 11 11 12 12 13 13 13 14 15 15 15 16 15 16 16 16 16 17 17 18 19 20 20 22 24 26 26 25 26 30 32 34 36 37 39 40 40 43 46 50 54 56 56 55 54 51 48 47 49 54 58 54 52 55 54 53 55 57 57 54 51 56 50 33 32 44 46 44 45 44 43 42 40
19 18 17 17 16 15 12 11 10 9 9 9 10 11 12 13 13 13 13 14 14 14 15 15 15 15 16 16 16 16 16 16 16 16 16 17 18 18 18 20 22 23 23 24 26 28 31 34 36 39 40 41 44 47 49 52 55 56 55 55 56 55 54 53 54 58 59 55 55 56 56 57 59 61 58 55 58 58 44 36 40 45 47 46 44 44 44 41
20 19 19 18 18 16 13 12 11 10 11 11 12 13 13 14 14 15 15 14 14 13 14 15 15 15 15 14 13 13 14 15 15 15 15 16 17 16 16 16 18 19 20 21 22 24 25 27 30 34 37 37 40 45 48 51 54 54 54 56 59 60 61 59 56 58 61 58 56 59 60 59 59 62 62 58 58 58 51 42 39 41 46 48 46 47 47 44
Wind_Direction
293 289 285 281 277 272 268 265 263 261 259 258 257 256 255 255 255 254 252 252 251 250 247 247 246 245 244 241 240 241 243 244 245 244 240 233 227 228 229 228 232 233 233 234 234 234 234 236 238 240 240 237 232 226 221 218 216 221 223 229 234 232 237 243 260 317 19 4 14 29 201 187 176 174 167 155 145 144 154 153 129 123 124 122 125 113 101 105
294 292 290 287 284 280 275 270 266 264 261 258 257 255 254 253 253 252 251 250 249 248 247 245 244 244 243 242 240 238 241 242 244 246 243 239 233 230 229 229 231 231 232 233 233 235 236 237 238 240 241 240 239 234 229 226 224 227 229 230 235 233 233 240 247 266 42 26 12 25 351 233 178 165 167 158 148 150 154 139 123 129 128 127 129 116 100 99
291 290 289 288 287 284 280 276 271 268 264 261 258 256 253 252 251 250 250 249 247 246 245 244 242 241 241 241 240 237 238 240 242 245 245 243 239 234 231 230 230 231 231 232 233 234 235 236 237 238 240 241 241 239 234 230 229 231 234 236 240 239 233 237 239 230 82 57 18 14 19 301 217 178 170 163 159 160 153 138 133 137 132 134 132 117 102 98
290 288 286 285 285 284 282 280 276 272 267 264 261 258 255 252 250 249 248 248 247 246 244 242 241 239 239 239 239 237 237 239 240 243 244 243 243 239 234 231 230 230 230 231 232 233 234 233 233 234 237 240 239 239 235 231 230 229 232 233 236 237 231 234 239 226 162 82 34 358 15 343 237 186 171 171 173 170 157 143 142 145 141 142 134 120 110 102
291 288 286 283 281 280 280 279 278 275 271 267 263 260 258 255 251 249 247 245 245 245 244 242 240 238 237 237 237 236 236 238 239 240 241 242 244 242 237 234 231 230 229 229 230 230 232 232 231 232 234 238 239 236 232 231 230 229 229 230 232 233 227 227 235 227 209 162 39 327 351 319 243 177 175 188 183 173 154 141 145 147 147 154 138 129 123 109
291 289 287 284 281 279 277 276 275 274 273 270 266 262 259 256 253 250 247 245 243 242 242 241 240 237 236 235 235 234 234 237 238 238 238 240 242 243 240 236 233 231 229 228 229 229 230 231 232 232 232 234 235 234 231 231 231 230 229 230 235 236 229 225 226 223 212 192 218 273 354 343 266 186 189 196 184 175 156 140 144 144 147 167 144 131 129 119
291 289 287 285 282 279 277 274 273 271 270 269 268 265 261 256 253 251 248 246 244 241 240 239 239 237 235 234 233 232 232 235 238 237 235 236 238 241 241 237 236 234 231 229 229 230 229 230 231 232 233 231 232 234 230 228 230 234 233 228 230 232 227 223 221 223 214 190 201 239 281 14 253 275 254 185 181 184 164 145 152 153 152 169 148 129 133 131
291 289 287 284 282 280 277 275 272 270 268 266 265 264 262 259 255 251 248 246 244 242 239 238 237 236 235 233 232 230 229 231 238 238 233 233 234 236 239 238 236 236 234 230 228 230 229 229 229 230 230 228 230 231 228 224 223 229 234 230 227 225 222 218 216 222 222 206 200 212 224 238 242 269 273 202 197 196 170 150 158 155 149 168 157 135 137 140
292 290 287 284 281 279 277 275 272 269 267 265 263 262 261 260 257 253 249 246 244 242 240 238 236 235 234 233 231 228 225 225 234 238 233 230 231 232 236 236 235 236 235 231 228 227 226 225 225 226 225 223 225 228 228 224 221 223 227 229 227 226 225 217 212 220 223 218 211 211 218 236 254 263 266 234 212 199 175 156 159 151 146 168 165 144 138 139
293 291 288 285 282 278 276 273 272 269 266 264 262 261 259 257 256 255 252 248 244 242 240 238 236 235 233 233 232 228 222 220 229 237 234 230 230 230 233 234 233 236 236 233 228 225 224 223 223 225 226 225 227 230 230 226 226 230 230 232 234 234 234 223 216 220 220 219 220 218 217 231 246 249 254 248 226 199 179 167 169 159 150 169 172 152 135 130
294 291 288 285 281 278 275 272 270 268 266 263 261 259 258 256 255 253 253 251 247 244 241 239 237 235 234 234 233 229 223 218 224 235 235 229 229 230 231 232 232 234 236 234 230 227 227 225 224 227 228 229 230 231 233 231 232 237 238 239 243 245 246 231 219 221 216 213 220 222 220 229 242 246 256 259 234 200 188 184 184 175 164 176 176 156 137 130
296 292 289 285 281 277 274 271 268 266 265 263 261 258 256 255 254 252 251 250 249 246 243 240 238 236 236 234 233 231 225 219 221 232 236 229 227 230 230 231 232 232 234 235 233 230 229 227 225 225 226 229 230 227 227 230 232 236 238 238 238 243 250 238 219 220 214 206 214 223 222 226 239 244 250 263 249 220 216 205 191 183 174 179 178 160 144 139
299 295 290 285 281 277 273 270 267 265 264 263 261 258 255 253 253 252 250 249 248 247 245 242 240 238 237 235 234 232 228 224 222 228 235 231 225 228 229 229 231 232 232 234 235 232 231 230 228 226 224 226 230 231 230 231 229 228 228 228 223 226 241 241 222 218 207 201 216 223 218 220 232 243 252 266 269 252 238 214 195 186 173 175 180 165 153 151
302 297 292 287 282 277 273 270 267 265 264 263 261 259 256 253 251 251 250 248 247 246 245 244 242 240 239 237 234 232 232 228 225 226 231 231 226 225 227 227 229 230 230 232 234 234 233 232 230 230 229 227 229 232 236 237 234 230 230 229 220 214 231 237 223 215 202 200 215 221 217 219 229 245 262 272 270 261 240 213 198 188 177 177 181 170 162 159
303 299 294 289 284 279 275 271 268 266 265 263 262 260 257 254 251 249 248 248 246 245 244 244 242 241 240 238 235 232 232 231 228 228 229 229 226 225 226 226 226 228 228 230 233 234 233 231 230 232 232 230 228 228 232 236 235 233 233 233 221 206 222 238 228 209 204 207 211 217 220 224 230 243 256 264 268 270 240 207 194 189 186 182 176 172 166 153
304 300 295 289 284 281 277 273 269 267 265 264 263 261 259 256 252 249 247 247 246 244 243 242 241 240 240 239 237 234 233 231 230 230 230 228 227 226 226 226 226 227 228 229 231 233 234 232 230 231 231 230 227 225 226 227 228 228 225 221 212 204 216 236 238 211 200 214 215 214 220 227 234 238 247 256 266 280 245 200 190 193 196 189 172 170 172 154
303 299 293 287 283 280 277 274 271 267 265 263 262 261 260 257 254 250 247 246 245 244 242 241 240 239 240 239 237 235 233 232 230 229 230 229 228 227 226 227 226 227 228 228 230 232 233 233 230 229 229 228 226 224 223 222 221 218 212 202 195 198 204 221 242 231 204 209 218 216 212 223 242 241 241 245 249 264 243 203 197 202 202 197 177 172 184 173
302 297 290 285 280 278 276 273 271 267 264 262 261 260 259 257 254 252 248 246 244 242 241 240 238 237 238 238 237 237 235 233 231 230 230 229 229 228 227 227 227 226 227 227 228 230 232 231 229 228 228 226 225 224 221 218 214 207 203 198 191 190 189 195 233 246 229 214 209 200 190 196 236 241 239 236 237 249 242 219 219 217 211 203 184 177 192 193
303 296 289 283 278 275 273 271 269 267 264 262 260 258 257 256 254 252 250 246 243 241 240 240 238 237 237 238 238 238 238 235 232 232 231 229 229 229 228 227 227 226 226 226 227 228 230 230 229 229 229 228 224 218 213 213 213 211 210 205 198 195 188 182 197 221 235 229 205 179 166 160 188 232 248 244 236 238 231 222 227 228 225 214 195 188 197 203
305 298 290 283 277 273 270 268 267 266 264 262 259 257 255 254 253 251 249 247 244 241 240 239 237 236 236 236 236 237 237 235 233 232 231 230 228 228 228 227 227 227 226 226 227 227 228 228 227 227 227 226 221 213 208 212 214 215 220 217 211 209 199 189 189 188 209 225 202 178 166 154 144 157 317 277 254 236 215 215 227 232 230 218 205 200 204 211
309 301 292 285 279 273 269 266 264 263 262 261 258 255 253 251 251 250 249 247 244 241 240 239 237 235 234 233 233 234 235 235 234 233 231 230 229 228 227 227 227 228 227 227 228 226 226 226 226 224 223 221 219 214 209 213 216 214 216 217 221 220 204 195 189 175 205 222 197 182 176 158 137 33 2 360 309 256 220 218 225 225 226 221 214 210 213 217
310 303 295 288 281 276 271 266 263 262 261 260 257 254 251 249 249 249 249 248 246 242 240 239 237 236 234 233 232 232 233 233 233 233 232 230 230 229 228 227 227 228 228 227 228 227 226 226 225 223 222 220 219 216 210 213 219 218 211 206 214 219 204 196 185 171 202 224 207 192 188 172 170 301 297 289 310 276 236 226 224 220 220 223 223 222 223 220
311 305 298 292 286 279 273 268 264 262 261 260 258 255 251 248 247 248 248 248 247 244 242 239 237 235 234 234 232 231 232 231 231 232 232 230 229 229 228 227 227 227 228 228 228 228 226 225 225 224 222 220 218 217 213 213 219 223 218 207 204 208 202 193 182 178 195 216 216 205 202 213 226 237 247 258 282 278 253 235 229 224 220 220 222 227 232 233
312 307 301 296 290 283 276 271 266 263 262 260 259 255 250 247 246 246 246 246 246 245 243 241 239 236 234 233 232 231 231 231 230 231 232 231 230 229 229 228 228 228 228 228 228 228 226 223 223 222 220 219 217 216 215 214 217 223 222 213 202 199 196 185 180 183 195 211 217 210 210 220 223 220 232 255 266 270 258 242 237 234 229 221 215 226 245 254
314 309 303 298 292 285 278 273 268 265 263 260 259 256 252 246 243 242 243 243 243 243 243 242 240 238 236 233 232 230 230 230 229 230 231 230 229 229 229 229 228 228 228 228 227 226 224 224 223 222 221 221 218 216 215 213 216 220 219 214 204 195 188 181 180 185 196 212 218 213 213 215 217 214 220 241 251 258 254 242 240 240 237 231 221 226 241 247
318 311 304 297 291 285 278 273 268 264 263 259 257 255 252 247 241 238 239 239 238 238 239 239 239 238 236 234 232 231 230 229 228 229 230 230 228 227 227 227 226 227 226 226 226 225 223 224 225 223 222 222 221 218 217 214 215 218 216 208 198 189 182 180 182 185 193 211 217 211 210 210 216 219 220 230 239 246 248 239 235 235 236 235 230 228 229 228
322 316 306 297 290 284 277 270 263 259 259 258 256 255 252 245 238 235 235 234 232 231 232 232 232 232 233 233 231 230 228 227 227 227 227 228 229 227 226 226 225 226 225 224 224 224 223 223 223 224 223 222 222 221 219 216 214 216 214 206 196 187 183 184 186 185 186 201 213 213 212 213 213 214 217 227 235 238 237 232 232 231 229 232 233 227 221 215
324 321 312 301 289 280 274 267 259 252 253 258 257 254 250 241 234 230 229 228 223 221 222 222 222 222 227 230 228 228 226 225 226 226 225 226 226 226 226 225 225 226 225 224 223 222 223 222 220 220 221 220 221 221 221 219 215 213 211 206 199 190 186 189 192 190 188 195 208 214 219 223 218 209 211 221 230 230 223 218 222 222 225 231 235 229 220 210
324 323 319 309 293 280 272 265 256 249 250 259 261 252 240 230 226 224 223 217 207 208 212 213 213 215 220 223 222 225 226 226 226 225 224 224 224 223 223 223 224 225 225 224 225 224 224 224 222 221 220 219 218 218 220 220 216 211 209 209 204 196 191 192 195 196 196 198 203 210 217 225 222 214 214 219 222 220 207 200 204 207 217 224 228 226 223 214
322 322 320 317 307 288 275 264 253 248 249 258 263 251 227 215 213 215 213 203 194 199 206 209 209 212 215 216 217 221 223 224 223 223 223 223 222 220 218 219 220 222 223 222 223 225 226 227 227 226 225 223 221 220 220 220 217 210 208 209 208 204 199 198 198 199 201 201 199 202 211 221 223 221 222 223 221 219 207 199 206 216 223 224 225 226 226 221
322 321 317 315 312 300 284 267 252 248 249 254 260 245 217 202 198 197 194 192 194 194 196 202 205 207 208 210 214 216 216 216 215 217 219 221 222 219 217 217 218 220 222 221 221 223 225 227 229 229 228 226 224 223 222 222 221 214 208 205 205 207 206 205 204 203 204 202 196 198 208 218 223 225 229 231 229 230 223 212 212 212 214 221 225 225 225 223
328 324 317 313 311 305 293 274 255 249 247 249 251 231 201 191 191 193 190 190 195 196 195 194 195 202 204 205 211 212 211 210 210 211 213 219 222 222 220 219 219 219 221 222 221 220 220 222 225 227 227 226 224 223 223 224 225 222 216 209 204 206 208 209 209 208 209 205 196 198 209 217 223 227 234 238 238 239 224 206 206 202 200 207 214 221 225 225
338 333 325 318 313 305 296 282 261 248 243 244 238 217 201 195 196 197 195 191 191 197 199 190 179 199 206 204 207 211 208 205 205 205 208 215 219 221 221 219 218 218 219 221 221 219 218 218 219 222 224 225 223 221 221 221 224 225 223 218 213 210 210 212 213 212 214 210 200 200 210 218 223 229 237 243 246 242 223 212 222 229 224 215 211 219 226 228
345 342 336 329 321 311 299 286 266 248 241 234 223 216 213 206 201 200 199 198 199 201 198 187 184 196 207 205 203 203 198 192 192 197 203 213 217 218 220 218 217 217 218 219 219 218 218 216 216 218 220 222 221 220 219 218 220 223 223 222 220 217 216 217 219 218 218 215 205 203 212 219 223 230 239 245 248 242 234 237 245 246 238 227 220 220 221 224
347 345 342 337 332 323 312 292 266 246 236 225 217 219 218 214 209 205 204 210 217 215 204 192 187 190 202 208 203 197 191 187 193 199 202 211 217 219 220 219 217 218 218 218 218 217 217 215 215 217 220 221 220 220 223 221 219 220 223 222 221 221 220 220 223 223 221 219 212 207 213 221 224 227 232 237 241 243 242 244 245 240 234 232 231 221 209 212
350 350 348 346 343 332 320 295 262 243 232 220 218 223 219 215 216 211 207 216 230 227 213 202 190 188 195 200 201 198 194 196 203 205 204 209 217 219 220 220 216 214 216 218 217 216 215 215 216 218 220 221 220 218 220 220 217 219 223 224 223 223 221 219 221 225 226 225 221 215 217 224 227 228 230 233 239 246 248 242 237 236 234 236 237 219 200 199
356 358 359 3 4 350 322 248 231 233 229 214 211 223 224 223 224 219 212 216 227 224 214 208 201 198 196 198 204 204 201 203 207 209 209 210 217 220 220 221 218 215 215 218 218 216 213 213 216 219 219 218 217 215 216 219 218 217 219 222 225 224 223 221 218 220 226 227 226 224 222 225 225 218 215 219 225 233 240 237 234 239 244 244 239 226 214 208
4 8 10 15 23 26 25 229 219 217 221 215 204 211 219 226 230 228 219 211 206 205 209 213 216 211 205 209 215 214 208 205 210 219 221 219 223 225 223 224 222 218 218 218 217 214 212 211 214 218 216 215 216 214 213 217 220 218 215 216 218 215 217 220 217 215 220 225 226 221 213 210 207 197 192 195 194 190 195 213 222 233 243 246 241 234 228 220
12 19 18 19 28 44 61 53 326 203 189 190 185 209 216 216 222 227 223 212 203 200 204 215 228 230 225 227 229 226 217 210 218 230 231 229 230 229 228 227 224 221 220 220 218 213 208 206 208 213 214 215 217 215 211 214 218 216 210 211 212 207 206 214 217 214 212 215 214 198 191 195 194 194 196 197 192 184 182 189 205 219 231 237 236 233 230 225
16 20 19 22 25 30 47 53 52 67 80 110 139 210 218 208 213 216 213 211 210 209 210 217 227 233 238 242 240 237 231 226 234 241 239 239 239 236 235 233 230 226 222 221 219 215 209 204 202 204 208 213 216 215 211 212 215 210 201 205 210 206 205 208 214 214 209 208 196 178 189 202 198 196 196 196 197 193 190 192 199 208 209 212 220 224 225 226
20 17 12 20 26 26 32 35 41 63 76 94 119 161 174 179 194 189 184 199 211 219 224 224 224 224 231 241 245 245 244 241 242 242 240 242 243 243 242 237 234 231 226 224 222 218 213 207 203 199 201 209 214 213 209 207 210 208 203 207 208 207 209 208 208 211 210 208 195 180 193 205 200 199 198 197 203 204 202 198 191 191 186 185 202 215 221 225
18 15 12 15 20 30 32 23 22 37 40 51 82 116 138 150 163 163 169 185 199 215 228 230 227 223 227 237 247 251 249 241 234 227 227 232 237 241 241 236 234 230 227 226 226 224 219 211 205 200 198 203 208 211 208 203 206 209 207 209 209 209 214 212 208 208 208 210 198 186 194 202 198 203 205 203 207 206 204 200 195 195 188 180 187 201 213 220
9 8 9 6 4 23 32 22 13 23 23 28 62 101 125 140 150 162 180 184 188 198 204 206 219 225 230 237 246 254 250 238 236 232 225 227 234 241 241 237 235 231 227 225 224 226 224 215 207 201 197 199 203 208 208 204 207 209 207 207 206 208 213 212 208 205 204 207 198 188 195 201 198 203 207 206 210 208 201 198 199 202 199 191 186 191 204 212
1 3 2 356 355 5 10 1 346 344 357 22 36 52 108 137 160 184 198 189 175 175 169 174 202 221 230 236 245 253 254 250 249 248 242 238 240 244 245 242 241 239 234 230 225 225 224 218 210 202 198 197 201 206 207 205 208 208 204 204 205 206 211 211 206 201 198 199 194 191 196 199 197 201 206 208 211 206 196 198 204 204 203 200 191 189 199 205
351 353 351 347 350 352 346 337 331 322 317 347 20 16 19 129 173 200 202 191 183 182 185 193 208 225 232 233 238 244 249 255 258 259 257 253 250 250 251 250 248 244 237 229 227 227 226 221 213 205 200 198 200 203 203 201 205 207 204 204 205 206 209 209 205 202 199 195 193 194 196 198 199 201 206 211 212 202 194 200 210 208 201 200 199 198 201 203
355 351 344 338 340 342 340 335 323 311 308 316 356 3 342 322 259 245 235 227 221 222 226 224 226 236 241 242 242 242 244 252 259 262 261 257 254 253 254 255 252 251 245 235 230 228 228 227 220 211 206 203 202 205 205 202 201 205 206 206 207 208 209 208 206 206 203 196 193 195 195 199 202 202 206 212 213 210 203 202 209 212 206 202 211 214 208 205
1 355 345 338 337 339 347 351 336 307 307 316 329 333 320 306 293 278 270 267 256 248 253 255 249 248 252 255 256 253 251 254 259 262 261 260 258 257 258 258 256 255 253 247 241 235 232 231 227 220 214 210 207 207 210 208 204 205 206 206 207 209 210 209 206 207 206 199 194 194 196 200 201 200 204 207 208 215 216 207 206 210 209 202 205 212 211 208
14 9 1 355 356 355 1 9 3 337 323 325 324 322 315 305 297 289 284 280 274 268 268 268 265 263 263 263 263 263 261 260 260 261 262 263 264 264 263 261 260 260 258 255 251 246 241 237 233 229 223 218 214 212 212 213 210 208 206 206 207 210 212 212 208 208 208 202 196 195 197 201 201 199 200 201 203 209 216 212 209 208 208 206 203 206 209 213
27 26 26 25 26 25 19 12 7 358 348 334 325 318 309 301 294 289 285 281 279 278 275 274 273 272 270 270 269 268 267 265 263 263 264 265 264 264 263 263 262 262 261 259 257 254 251 246 240 236 231 226 221 217 215 216 215 213 211 210 211 214 216 216 213 211 210 204 199 197 197 202 203 200 198 197 199 199 199 208 210 210 213 213 209 205 204 208
33 32 35 37 36 33 24 14 8 359 348 338 330 321 310 304 297 290 286 285 285 284 280 277 277 275 273 271 269 268 266 265 264 263 262 261 258 256 258 260 261 260 260 259 258 257 256 253 248 243 239 235 230 224 220 219 219 219 217 216 217 219 220 218 216 214 211 206 203 200 198 203 206 203 198 197 198 199 198 201 206 212 217 215 210 207 205 205
38 36 38 38 37 33 26 19 12 359 346 337 330 322 314 311 306 300 296 293 291 289 285 281 279 275 272 269 268 268 267 266 265 263 260 254 250 249 252 255 258 259 260 260 260 259 258 258 255 250 245 243 239 233 226 222 221 222 222 221 220 220 221 220 218 217 215 210 206 203 201 205 208 205 201 198 198 202 205 203 203 211 216 213 209 210 209 207
40 39 40 39 35 29 22 14 6 357 351 343 337 332 328 324 319 311 306 300 295 290 286 283 279 276 274 273 272 271 269 268 266 264 259 248 243 245 249 253 256 260 263 264 264 265 263 264 263 258 254 252 249 242 235 228 223 222 223 223 221 220 221 221 219 219 218 215 210 207 205 206 209 207 203 201 199 201 205 204 199 202 206 207 210 214 215 212
Height
5872 5871 5871 5870 5870 5869 5869 5869 5869 5868 5868 5868 5868 5868 5868 5868 5869 5869 5869 5870 5870 5871 5872 5873 5873 5874 5874 5875 5875 5876 5876 5876 5876 5876 5877 5878 5879 5879 5880 5882 5882 5883 5884 5885 5886 5887 5888 5889 5891 5891 5892 5893 5894 5896 5898 5899 5900 5900 5900 5900 5901 5901 5901 5901 5902 5903 5903 5901 5901 5902 5902 5902 5902 5902 5904 5906 5908 5909 5911 5913 5912 5911 5912 5913 5914 5914 5914 5915
5871 5870 5869 5868 5868 5867 5867 5867 5866 5866 5866 5865 5865 5865 5866 5866 5866 5866 5867 5867 5867 5868 5869 5870 5871 5871 5872 5873 5873 5874 5874 5874 5874 5874 5875 5876 5877 5878 5879 5880 5880 5881 5882 5883 5884 5886 5887 5888 5889 5890 5890 5892 5893 5894 5896 5898 5899 5899 5899 5899 5900 5901 5900 5900 5902 5903 5903 5902 5901 5901 5902 5902 5901 5902 5905 5906 5908 5909 5910 5911 5910 5911 5912 5913 5914 5914 5914 5915
5868 5868 5867 5867 5866 5865 5865 5865 5864 5863 5863 5863 5863 5862 5863 5863 5863 5863 5864 5864 5865 5865 5866 5867 5868 5869 5870 5870 5871 5872 5872 5872 5872 5872 5873 5874 5875 5876 5877 5878 5879 5880 5881 5881 5883 5884 5885 5887 5888 5888 5889 5890 5891 5893 5895 5896 5897 5898 5898 5899 5900 5900 5900 5900 5901 5902 5903 5903 5902 5902 5902 5903 5903 5903 5905 5907 5907 5909 5910 5909 5911 5912 5912 5913 5914 5914 5914 5915
5866 5865 5865 5864 5864 5863 5863 5862 5862 5861 5861 5860 5860 5860 5860 5860 5860 5860 5861 5861 5862 5862 5863 5864 5865 5866 5867 5867 5868 5869 5870 5869 5870 5870 5871 5872 5873 5874 5875 5876 5877 5878 5879 5880 5880 5882 5883 5884 5885 5886 5887 5889 5890 5892 5894 5895 5895 5896 5897 5898 5898 5898 5900 5900 5900 5902 5903 5903 5903 5902 5903 5904 5904 5904 5905 5906 5907 5908 5909 5909 5910 5912 5912 5913 5914 5914 5914 5915
5863 5862 5862 5862 5861 5860 5860 5860 5859 5859 5858 5858 5857 5857 5857 5857 5857 5857 5858 5858 5859 5859 5860 5861 5862 5863 5864 5865 5865 5866 5867 5867 5867 5869 5869 5870 5871 5872 5872 5874 5875 5876 5877 5878 5878 5880 5881 5882 5883 5885 5886 5887 5889 5891 5892 5893 5894 5895 5895 5896 5896 5896 5899 5900 5899 5901 5903 5902 5902 5903 5903 5903 5904 5903 5904 5905 5907 5908 5909 5909 5910 5911 5912 5913 5914 5914 5915 5915
5859 5859 5858 5858 5858 5857 5857 5856 5856 5856 5856 5855 5855 5854 5854 5854 5854 5854 5855 5855 5855 5856 5857 5857 5859 5860 5861 5862 5863 5864 5864 5864 5865 5866 5867 5868 5869 5869 5870 5871 5873 5874 5875 5875 5876 5878 5879 5880 5882 5883 5884 5885 5887 5889 5890 5891 5892 5893 5894 5895 5895 5896 5899 5900 5899 5899 5901 5901 5902 5903 5903 5904 5904 5904 5905 5906 5908 5908 5908 5909 5910 5911 5912 5913 5914 5914 5915 5915
5855 5854 5854 5854 5853 5853 5853 5853 5853 5852 5852 5852 5852 5851 5851 5851 5851 5851 5851 5852 5852 5853 5853 5854 5855 5856 5858 5858 5859 5860 5862 5862 5862 5863 5864 5865 5866 5867 5868 5869 5871 5872 5872 5873 5875 5875 5877 5879 5880 5881 5882 5883 5884 5886 5888 5890 5891 5892 5893 5893 5893 5894 5897 5898 5899 5898 5899 5900 5901 5902 5904 5904 5904 5905 5906 5906 5907 5907 5907 5909 5910 5911 5912 5913 5914 5915 5915 5915
5851 5850 5849 5849 5849 5849 5848 5848 5848 5848 5848 5848 5848 5848 5848 5848 5848 5848 5848 5849 5849 5850 5850 5851 5852 5853 5854 5855 5856 5858 5859 5860 5858 5859 5861 5862 5864 5864 5865 5867 5868 5869 5870 5872 5873 5874 5876 5877 5878 5879 5880 5882 5881 5882 5885 5888 5889 5890 5891 5891 5891 5892 5894 5897 5898 5897 5897 5899 5900 5902 5903 5904 5904 5905 5906 5906 5906 5907 5907 5908 5910 5911 5912 5913 5914 5915 5915 5915
5847 5845 5845 5844 5844 5843 5843 5843 5843 5844 5844 5843 5843 5843 5844 5844 5845 5845 5845 5846 5846 5846 5847 5848 5849 5850 5851 5852 5853 5855 5856 5857 5855 5854 5857 5859 5861 5862 5863 5865 5866 5866 5868 5869 5871 5873 5874 5874 5875 5876 5877 5878 5878 5880 5883 5886 5887 5887 5887 5888 5890 5891 5892 5895 5896 5896 5897 5898 5899 5902 5903 5904 5904 5905 5906 5906 5905 5906 5907 5908 5910 5910 5911 5912 5913 5914 5915 5916
5842 5841 5840 5839 5838 5838 5838 5838 5838 5838 5838 5838 5839 5839 5839 5839 5840 5841 5842 5842 5843 5843 5844 5845 5846 5847 5848 5848 5849 5851 5853 5855 5853 5850 5853 5856 5858 5860 5861 5862 5863 5864 5865 5867 5869 5870 5870 5871 5872 5873 5874 5876 5877 5878 5881 5884 5884 5884 5885 5887 5888 5890 5891 5893 5895 5895 5896 5897 5899 5901 5903 5903 5904 5904 5904 5904 5905 5906 5907 5908 5909 5909 5910 5912 5913 5914 5915 5915
5837 5836 5835 5834 5833 5832 5832 5832 5832 5832 5832 5832 5833 5833 5834 5835 5835 5836 5837 5838 5839 5840 5841 5842 5843 5844 5845 5846 5846 5848 5850 5851 5850 5848 5849 5854 5856 5857 5858 5859 5861 5862 5863 5865 5866 5867 5868 5869 5870 5872 5873 5875 5876 5878 5880 5882 5882 5882 5884 5886 5888 5888 5889 5892 5894 5894 5895 5897 5898 5900 5901 5902 5903 5903 5903 5904 5905 5906 5906 5906 5907 5909 5910 5911 5912 5913 5914 5915
5832 5831 5829 5828 5827 5827 5826 5826 5826 5826 5826 5826 5827 5828 5829 5829 5830 5831 5832 5833 5835 5836 5837 5838 5839 5840 5841 5842 5843 5845 5846 5847 5848 5846 5847 5851 5854 5854 5855 5857 5858 5859 5861 5862 5863 5864 5865 5866 5868 5870 5872 5873 5874 5876 5878 5879 5880 5881 5883 5886 5887 5887 5887 5890 5892 5892 5894 5896 5897 5898 5900 5902 5901 5902 5903 5904 5905 5906 5906 5905 5906 5908 5909 5910 5912 5912 5913 5914
5827 5825 5824 5823 5822 5821 5820 5820 5821 5821 5821 5820 5821 5821 5822 5824 5825 5826 5827 5828 5830 5831 5833 5834 5835 5837 5838 5839 5840 5841 5843 5844 5845 5845 5845 5848 5850 5851 5852 5854 5855 5857 5858 5859 5860 5861 5863 5864 5867 5868 5869 5870 5872 5875 5876 5877 5879 5880 5882 5884 5885 5886 5886 5888 5890 5890 5893 5895 5895 5897 5899 5901 5900 5900 5903 5904 5905 5905 5905 5905 5906 5907 5908 5910 5911 5912 5912 5913
5821 5820 5819 5817 5816 5815 5815 5814 5815 5815 5815 5815 5815 5815 5816 5818 5819 5820 5822 5823 5825 5826 5828 5830 5831 5833 5834 5835 5837 5838 5839 5841 5842 5843 5843 5844 5847 5848 5849 5851 5852 5854 5855 5856 5857 5859 5860 5862 5864 5865 5867 5869 5871 5873 5875 5876 5878 5879 5881 5883 5884 5885 5885 5886 5888 5889 5892 5894 5894 5895 5898 5899 5899 5899 5901 5903 5903 5903 5904 5906 5906 5907 5909 5910 5910 5911 5912 5912
5816 5815 5813 5812 5810 5809 5809 5809 5809 5809 5810 5809 5809 5810 5811 5812 5813 5815 5816 5818 5820 5821 5824 5825 5827 5828 5829 5831 5833 5835 5836 5837 5839 5840 5841 5842 5843 5845 5846 5848 5849 5850 5852 5853 5855 5856 5858 5860 5862 5864 5866 5867 5869 5871 5873 5875 5876 5878 5880 5882 5883 5884 5883 5884 5887 5889 5891 5893 5893 5894 5896 5897 5899 5900 5901 5902 5903 5903 5903 5904 5905 5907 5909 5910 5910 5910 5911 5912
5811 5809 5808 5807 5804 5803 5803 5803 5803 5803 5804 5804 5804 5805 5805 5806 5808 5809 5811 5813 5814 5817 5819 5820 5822 5824 5825 5827 5829 5831 5832 5834 5835 5836 5838 5839 5841 5842 5843 5845 5846 5848 5849 5851 5852 5853 5855 5858 5860 5862 5863 5865 5867 5869 5871 5873 5875 5876 5878 5880 5882 5883 5883 5883 5885 5888 5890 5891 5892 5894 5895 5896 5897 5899 5901 5902 5902 5903 5903 5904 5905 5907 5909 5910 5909 5909 5910 5911
5805 5804 5803 5801 5799 5798 5797 5797 5797 5797 5798 5799 5799 5800 5800 5801 5803 5804 5806 5807 5809 5812 5814 5815 5817 5819 5820 5822 5824 5826 5828 5830 5832 5833 5834 5836 5838 5839 5840 5842 5843 5845 5846 5848 5849 5851 5853 5856 5858 5859 5860 5863 5865 5867 5870 5872 5873 5874 5876 5877 5880 5881 5882 5882 5883 5886 5889 5890 5892 5893 5894 5894 5896 5898 5900 5901 5901 5902 5903 5905 5906 5907 5908 5909 5908 5908 5909 5911
5799 5798 5796 5795 5793 5792 5792 5792 5791 5792 5792 5793 5794 5795 5796 5796 5798 5799 5801 5802 5805 5807 5808 5809 5812 5814 5816 5818 5820 5822 5824 5826 5828 5829 5831 5833 5834 5836 5838 5839 5840 5842 5843 5845 5847 5848 5850 5853 5855 5856 5858 5861 5864 5866 5869 5870 5870 5871 5872 5874 5876 5877 5879 5882 5882 5884 5887 5889 5891 5892 5893 5894 5895 5897 5898 5900 5900 5901 5903 5904 5906 5907 5907 5907 5907 5907 5909 5910
5794 5792 5790 5789 5787 5786 5786 5786 5786 5786 5786 5787 5789 5790 5791 5792 5793 5795 5796 5798 5800 5801 5803 5805 5807 5810 5811 5814 5816 5818 5820 5822 5824 5826 5827 5829 5831 5832 5834 5836 5837 5839 5840 5842 5844 5845 5847 5849 5852 5854 5857 5860 5863 5865 5866 5866 5867 5867 5868 5870 5872 5874 5875 5878 5880 5882 5884 5886 5890 5891 5892 5893 5895 5896 5897 5899 5900 5902 5903 5903 5905 5906 5906 5906 5906 5907 5909 5910
5788 5786 5784 5782 5781 5780 5779 5780 5780 5780 5781 5782 5783 5784 5786 5788 5789 5790 5791 5793 5795 5797 5799 5801 5803 5805 5807 5809 5812 5813 5815 5818 5820 5821 5823 5825 5827 5829 5831 5832 5834 5836 5838 5840 5841 5843 5844 5846 5849 5853 5856 5858 5860 5862 5863 5863 5864 5865 5866 5869 5871 5872 5873 5875 5876 5879 5881 5884 5887 5889 5890 5892 5894 5895 5896 5898 5900 5901 5902 5903 5904 5905 5905 5906 5906 5907 5909 5910
5783 5781 5778 5776 5775 5774 5773 5773 5774 5775 5776 5777 5778 5779 5781 5783 5784 5785 5787 5788 5790 5793 5794 5796 5798 5800 5802 5804 5806 5808 5811 5813 5815 5817 5819 5821 5823 5825 5827 5829 5831 5833 5835 5837 5838 5839 5841 5844 5848 5851 5853 5855 5856 5858 5860 5860 5861 5863 5865 5868 5871 5872 5874 5875 5875 5877 5877 5879 5884 5887 5888 5891 5892 5894 5896 5897 5899 5900 5901 5902 5903 5904 5904 5905 5906 5907 5908 5909
5777 5775 5773 5771 5769 5768 5767 5768 5768 5769 5770 5771 5772 5773 5775 5777 5778 5780 5782 5784 5786 5788 5790 5791 5794 5796 5798 5799 5801 5804 5806 5809 5811 5813 5815 5817 5819 5821 5823 5826 5828 5830 5832 5833 5835 5837 5839 5843 5847 5848 5849 5851 5853 5855 5857 5858 5858 5860 5863 5866 5869 5872 5874 5874 5874 5875 5874 5875 5879 5884 5886 5889 5891 5892 5894 5896 5897 5898 5899 5900 5901 5902 5903 5904 5906 5907 5907 5908
5772 5770 5768 5766 5764 5763 5762 5762 5763 5764 5765 5766 5767 5769 5771 5772 5773 5776 5778 5779 5781 5783 5785 5787 5789 5791 5793 5794 5797 5799 5801 5804 5807 5809 5811 5813 5815 5818 5820 5822 5825 5826 5828 5830 5832 5834 5838 5842 5844 5845 5846 5848 5850 5852 5854 5856 5856 5858 5861 5864 5868 5871 5872 5873 5873 5872 5871 5871 5874 5879 5883 5885 5887 5890 5892 5894 5896 5897 5897 5898 5899 5900 5902 5903 5904 5905 5907 5908
5767 5765 5764 5762 5760 5759 5758 5758 5759 5760 5760 5761 5763 5764 5766 5767 5769 5771 5772 5774 5776 5778 5781 5783 5785 5786 5788 5790 5792 5794 5796 5800 5803 5805 5806 5809 5812 5814 5816 5819 5821 5823 5825 5827 5830 5832 5836 5839 5840 5840 5842 5844 5846 5849 5851 5853 5854 5856 5859 5863 5866 5869 5871 5872 5871 5871 5871 5870 5871 5875 5878 5880 5884 5887 5890 5892 5894 5895 5896 5897 5898 5899 5900 5902 5903 5904 5906 5907
5763 5761 5760 5758 5756 5755 5755 5754 5755 5756 5757 5758 5758 5759 5761 5763 5765 5767 5768 5770 5772 5773 5776 5778 5780 5781 5783 5785 5787 5789 5792 5796 5799 5801 5801 5804 5808 5811 5813 5815 5818 5820 5822 5824 5826 5829 5833 5834 5835 5837 5840 5841 5843 5846 5848 5851 5852 5853 5857 5862 5865 5867 5869 5870 5870 5871 5872 5871 5871 5874 5875 5878 5882 5885 5888 5890 5892 5893 5894 5895 5897 5897 5899 5900 5902 5904 5905 5906
5760 5757 5756 5754 5753 5752 5751 5751 5752 5753 5754 5755 5755 5755 5757 5759 5761 5763 5765 5767 5768 5770 5771 5773 5775 5777 5779 5781 5783 5785 5789 5792 5795 5796 5797 5800 5804 5806 5808 5810 5813 5815 5817 5819 5822 5825 5829 5830 5832 5835 5837 5839 5841 5843 5845 5848 5850 5851 5855 5859 5863 5864 5866 5868 5869 5871 5873 5871 5870 5872 5874 5877 5880 5882 5886 5889 5891 5892 5892 5893 5895 5897 5898 5900 5901 5903 5904 5905
5757 5754 5752 5751 5749 5748 5748 5749 5750 5751 5751 5751 5752 5752 5753 5755 5757 5759 5761 5763 5765 5766 5767 5769 5771 5773 5774 5777 5779 5782 5784 5786 5789 5791 5794 5796 5799 5802 5803 5806 5808 5810 5812 5815 5819 5822 5825 5827 5829 5832 5834 5836 5839 5841 5843 5845 5847 5850 5853 5857 5860 5861 5863 5865 5865 5868 5870 5869 5868 5870 5871 5873 5876 5880 5885 5888 5888 5889 5890 5891 5893 5895 5897 5898 5900 5901 5902 5904
5754 5751 5748 5748 5746 5745 5746 5746 5747 5749 5749 5748 5749 5750 5751 5752 5754 5756 5758 5760 5762 5763 5764 5766 5768 5769 5771 5773 5776 5777 5779 5782 5784 5786 5789 5792 5794 5796 5798 5801 5804 5805 5809 5813 5816 5819 5820 5822 5824 5827 5830 5833 5836 5838 5840 5842 5845 5848 5851 5853 5856 5858 5860 5861 5862 5864 5866 5866 5866 5867 5868 5870 5874 5878 5882 5884 5885 5887 5889 5890 5892 5894 5895 5897 5898 5900 5901 5902
5751 5748 5746 5745 5744 5743 5743 5744 5745 5746 5747 5746 5747 5748 5749 5750 5751 5753 5755 5757 5759 5760 5761 5763 5765 5767 5769 5770 5772 5774 5776 5779 5781 5782 5785 5787 5788 5791 5793 5796 5799 5801 5805 5809 5813 5816 5817 5819 5821 5824 5826 5829 5832 5834 5836 5838 5842 5845 5848 5850 5852 5855 5857 5858 5860 5862 5863 5863 5865 5866 5867 5868 5871 5875 5877 5879 5882 5886 5889 5890 5891 5892 5894 5896 5898 5899 5900 5902
5748 5746 5744 5743 5742 5742 5742 5742 5743 5744 5745 5745 5745 5746 5747 5748 5749 5751 5753 5755 5756 5758 5759 5761 5763 5764 5766 5767 5769 5771 5774 5777 5777 5779 5781 5782 5782 5784 5787 5790 5794 5797 5801 5805 5809 5812 5814 5817 5820 5823 5825 5828 5830 5832 5834 5835 5838 5841 5844 5846 5849 5852 5854 5855 5857 5859 5860 5862 5865 5865 5865 5865 5868 5871 5874 5877 5882 5885 5888 5889 5890 5892 5893 5895 5897 5898 5900 5901
5746 5744 5743 5742 5741 5741 5740 5740 5741 5742 5743 5743 5744 5744 5745 5746 5747 5748 5750 5751 5753 5755 5757 5758 5760 5762 5763 5764 5766 5769 5772 5773 5774 5776 5777 5776 5776 5779 5782 5787 5790 5794 5797 5801 5805 5808 5811 5814 5817 5820 5823 5825 5827 5829 5831 5832 5834 5837 5839 5842 5845 5848 5850 5852 5853 5855 5856 5860 5864 5864 5863 5863 5865 5868 5872 5877 5882 5884 5886 5888 5889 5890 5892 5894 5896 5897 5899 5900
5744 5742 5741 5740 5740 5739 5739 5739 5739 5740 5741 5741 5742 5743 5743 5743 5744 5745 5746 5748 5750 5752 5754 5756 5758 5759 5761 5763 5765 5767 5769 5770 5771 5773 5772 5771 5773 5776 5781 5784 5787 5791 5794 5797 5801 5804 5807 5810 5813 5816 5818 5819 5822 5825 5828 5830 5832 5834 5836 5839 5841 5842 5845 5847 5849 5852 5854 5858 5862 5862 5862 5862 5864 5867 5870 5876 5881 5884 5885 5887 5888 5889 5890 5892 5894 5896 5897 5899
5742 5741 5739 5739 5738 5738 5738 5738 5738 5738 5739 5740 5741 5741 5741 5741 5742 5743 5744 5745 5747 5749 5752 5755 5757 5758 5759 5762 5763 5765 5766 5768 5769 5769 5767 5767 5771 5774 5778 5782 5785 5787 5790 5793 5797 5800 5803 5805 5808 5810 5812 5814 5818 5821 5824 5826 5828 5830 5833 5836 5838 5839 5841 5843 5846 5849 5852 5857 5860 5862 5861 5861 5863 5867 5870 5875 5880 5883 5885 5885 5886 5888 5889 5890 5892 5893 5895 5897
5741 5740 5738 5737 5737 5737 5736 5736 5737 5737 5738 5738 5739 5739 5740 5741 5742 5742 5743 5744 5745 5747 5750 5753 5755 5756 5757 5759 5761 5763 5765 5766 5766 5764 5762 5765 5769 5772 5775 5780 5782 5784 5787 5790 5793 5797 5799 5801 5803 5805 5807 5810 5814 5817 5818 5821 5823 5826 5829 5832 5835 5837 5839 5842 5844 5848 5851 5855 5859 5860 5858 5858 5863 5868 5871 5874 5878 5880 5882 5882 5884 5885 5888 5889 5889 5891 5893 5895
5741 5739 5738 5737 5736 5736 5736 5735 5736 5736 5736 5737 5737 5738 5739 5740 5742 5743 5744 5745 5746 5747 5750 5752 5753 5754 5755 5756 5758 5760 5762 5763 5761 5760 5761 5764 5768 5771 5774 5778 5779 5781 5783 5786 5789 5793 5795 5797 5800 5801 5803 5808 5812 5814 5816 5818 5820 5822 5824 5828 5831 5834 5837 5840 5842 5845 5847 5850 5854 5856 5856 5857 5862 5867 5870 5871 5873 5875 5877 5879 5881 5882 5884 5886 5887 5889 5891 5893
5740 5739 5737 5736 5736 5735 5735 5735 5735 5735 5736 5736 5737 5738 5739 5740 5741 5743 5744 5745 5747 5748 5749 5750 5750 5751 5752 5753 5755 5757 5759 5759 5757 5758 5761 5764 5767 5770 5773 5774 5776 5777 5780 5782 5785 5789 5792 5795 5797 5798 5802 5806 5809 5811 5812 5814 5817 5819 5822 5825 5828 5831 5835 5837 5839 5841 5843 5845 5849 5853 5855 5858 5862 5866 5868 5869 5870 5871 5873 5875 5877 5879 5881 5883 5886 5889 5890 5891
5740 5739 5737 5736 5735 5735 5734 5734 5734 5734 5735 5736 5737 5738 5739 5739 5740 5742 5744 5745 5747 5748 5747 5748 5749 5750 5751 5751 5752 5754 5755 5756 5755 5757 5760 5763 5766 5768 5770 5771 5772 5775 5777 5780 5783 5786 5789 5791 5793 5796 5800 5802 5804 5807 5809 5811 5814 5816 5819 5822 5824 5827 5830 5832 5835 5837 5839 5841 5845 5850 5855 5858 5860 5863 5864 5865 5866 5868 5870 5872 5874 5876 5877 5880 5883 5887 5889 5890
5741 5739 5738 5736 5735 5735 5734 5734 5734 5734 5734 5736 5737 5738 5738 5739 5740 5741 5743 5744 5745 5746 5746 5747 5748 5749 5750 5750 5751 5752 5752 5753 5754 5756 5760 5763 5763 5765 5766 5767 5770 5773 5776 5778 5780 5783 5786 5788 5790 5793 5796 5797 5799 5804 5807 5809 5811 5812 5814 5816 5819 5822 5824 5826 5829 5833 5836 5839 5843 5849 5853 5853 5853 5855 5856 5856 5859 5862 5864 5868 5870 5872 5874 5877 5881 5884 5887 5888
5742 5740 5739 5738 5736 5735 5735 5734 5734 5734 5735 5736 5738 5739 5739 5740 5740 5741 5742 5743 5744 5744 5746 5746 5747 5748 5749 5750 5750 5750 5750 5752 5754 5757 5759 5760 5761 5762 5763 5765 5768 5772 5774 5776 5777 5779 5782 5785 5787 5790 5793 5793 5796 5801 5804 5805 5807 5810 5811 5811 5812 5816 5819 5821 5825 5829 5833 5836 5841 5847 5849 5847 5848 5850 5850 5851 5853 5855 5858 5862 5866 5868 5871 5874 5878 5881 5883 5885
5742 5741 5740 5739 5738 5737 5736 5735 5735 5736 5736 5736 5738 5739 5739 5739 5739 5740 5742 5743 5743 5743 5744 5745 5746 5747 5748 5748 5747 5747 5749 5752 5755 5756 5757 5758 5758 5760 5762 5764 5767 5770 5771 5773 5774 5776 5779 5782 5785 5788 5790 5791 5794 5798 5800 5801 5803 5806 5806 5805 5808 5811 5814 5818 5822 5826 5830 5833 5839 5844 5843 5842 5843 5844 5845 5847 5848 5851 5855 5858 5861 5864 5868 5871 5874 5877 5879 5881
5743 5743 5742 5741 5740 5739 5738 5738 5737 5737 5737 5737 5737 5738 5738 5738 5738 5739 5740 5741 5742 5742 5743 5744 5745 5745 5746 5746 5746 5746 5749 5753 5754 5755 5755 5755 5756 5757 5760 5763 5765 5767 5769 5770 5771 5773 5776 5779 5782 5785 5787 5789 5791 5793 5795 5798 5799 5800 5800 5801 5805 5808 5811 5816 5820 5823 5826 5829 5835 5839 5839 5838 5839 5840 5840 5842 5845 5849 5852 5854 5856 5859 5863 5867 5871 5873 5876 5878
5744 5744 5743 5742 5741 5740 5739 5739 5739 5739 5738 5738 5738 5738 5738 5738 5738 5739 5739 5739 5741 5742 5743 5744 5745 5745 5745 5745 5745 5746 5748 5752 5752 5752 5753 5754 5754 5755 5757 5759 5762 5764 5766 5768 5769 5771 5774 5777 5779 5782 5784 5786 5788 5789 5793 5796 5796 5796 5797 5799 5802 5806 5808 5812 5815 5818 5821 5824 5830 5835 5835 5834 5836 5836 5835 5837 5841 5845 5847 5849 5852 5854 5857 5861 5866 5869 5873 5875
5745 5744 5744 5743 5742 5741 5741 5741 5741 5740 5740 5740 5739 5739 5739 5739 5739 5739 5738 5739 5740 5741 5743 5744 5744 5744 5744 5744 5744 5745 5748 5749 5750 5750 5751 5752 5753 5753 5754 5756 5759 5761 5763 5765 5767 5769 5771 5774 5777 5780 5782 5784 5784 5786 5789 5792 5792 5793 5795 5797 5800 5802 5804 5807 5810 5812 5815 5819 5824 5829 5829 5830 5833 5832 5831 5833 5837 5839 5842 5846 5849 5851 5855 5859 5863 5866 5869 5871
5746 5745 5744 5743 5742 5741 5741 5741 5741 5741 5740 5740 5740 5740 5739 5739 5739 5739 5739 5740 5740 5741 5742 5742 5743 5743 5743 5744 5744 5745 5746 5747 5747 5748 5750 5751 5751 5751 5752 5754 5756 5758 5760 5761 5763 5765 5767 5770 5774 5777 5780 5781 5781 5782 5785 5787 5788 5789 5792 5794 5796 5798 5800 5803 5806 5807 5810 5815 5819 5822 5822 5825 5828 5828 5829 5831 5832 5834 5838 5843 5846 5849 5854 5856 5859 5861 5864 5867
5746 5745 5744 5743 5743 5742 5741 5741 5740 5740 5740 5740 5740 5740 5739 5739 5739 5739 5739 5740 5740 5741 5741 5741 5741 5741 5742 5743 5744 5744 5744 5745 5746 5746 5747 5748 5749 5749 5749 5750 5752 5754 5757 5759 5760 5761 5763 5765 5769 5772 5775 5776 5776 5777 5779 5781 5784 5786 5788 5789 5792 5794 5797 5800 5802 5804 5807 5812 5814 5815 5818 5821 5823 5824 5826 5827 5827 5830 5834 5838 5842 5846 5850 5852 5855 5856 5859 5860
5745 5745 5744 5743 5743 5742 5741 5741 5740 5739 5739 5739 5740 5740 5739 5739 5739 5739 5739 5739 5739 5740 5740 5740 5740 5740 5741 5741 5742 5742 5743 5744 5744 5744 5745 5745 5745 5746 5746 5748 5750 5751 5753 5755 5757 5758 5759 5761 5764 5767 5769 5770 5771 5773 5775 5777 5780 5782 5784 5786 5788 5791 5793 5796 5799 5801 5805 5808 5808 5811 5815 5817 5818 5821 5823 5822 5824 5828 5830 5832 5836 5840 5844 5849 5852 5853 5854 5856
5745 5744 5744 5743 5742 5742 5741 5741 5740 5739 5739 5739 5739 5739 5739 5739 5739 5738 5738 5738 5738 5738 5739 5739 5739 5739 5739 5740 5740 5741 5741 5742 5742 5742 5742 5741 5742 5743 5743 5745 5747 5747 5748 5751 5752 5754 5755 5757 5759 5762 5764 5766 5768 5770 5772 5774 5777 5778 5780 5782 5784 5787 5789 5792 5795 5798 5800 5803 5804 5806 5810 5811 5813 5817 5819 5820 5823 5827 5827 5825 5828 5833 5838 5843 5847 5850 5853 5854
5745 5743 5743 5742 5742 5742 5741 5740 5740 5739 5739 5739 5738 5738 5738 5738 5738 5738 5737 5737 5737 5737 5737 5736 5737 5737 5737 5737 5737 5737 5738 5738 5738 5738 5738 5738 5738 5739 5740 5741 5742 5743 5744 5745 5747 5749 5750 5752 5755 5757 5760 5763 5765 5766 5767 5769 5772 5774 5776 5777 5779 5783 5785 5788 5792 5794 5795 5798 5800 5802 5804 5806 5809 5811 5813 5817 5821 5824 5825 5822 5823 5828 5832 5837 5841 5845 5848 5851
5745 5744 5743 5742 5741 5741 5741 5740 5740 5739 5739 5739 5738 5737 5737 5737 5737 5736 5736 5735 5735 5735 5734 5734 5734 5734 5734 5734 5734 5734 5734 5734 5735 5735 5735 5735 5735 5735 5736 5736 5737 5738 5739 5740 5741 5742 5745 5747 5749 5752 5755 5757 5758 5759 5761 5763 5765 5769 5772 5775 5777 5780 5782 5786 5788 5788 5789 5793 5794 5795 5799 5802 5802 5804 5808 5813 5816 5819 5821 5820 5819 5823 5827 5830 5835 5838 5841 5845
5746 5745 5743 5742 5741 5741 5741 5740 5740 5739 5739 5738 5737 5737 5736 5735 5735 5734 5734 5733 5732 5732 5731 5731 5731 5731 5731 5731 5731 5731 5731 5731 5731 5732 5732 5732 5732 5732 5732 5733 5733 5734 5735 5736 5736 5737 5739 5740 5743 5746 5748 5749 5750 5752 5754 5757 5760 5765 5769 5773 5775 5777 5779 5780 5780 5780 5783 5786 5787 5791 5796 5796 5795 5799 5805 5809 5812 5814 5815 5815 5816 5821 5823 5825 5828 5831 5833 5838
5747 5746 5745 5743 5742 5742 5741 5741 5740 5739 5739 5738 5737 5736 5735 5734 5733 5732 5731 5730 5730 5729 5729 5728 5728 5728 5728 5728 5728 5728 5728 5728 5728 5728 5728 5728 5728 5729 5730 5730 5730 5730 5731 5732 5733 5733 5734 5734 5736 5739 5740 5741 5741 5744 5747 5751 5755 5759 5764 5769 5770 5771 5770 5769 5771 5774 5778 5781 5784 5788 5791 5790 5791 5796 5801 5804 5807 5810 5811 5812 5814 5818 5820 5821 5824 5828 5828 5831
5748 5747 5746 5744 5743 5743 5742 5741 5740 5739 5738 5737 5736 5735 5733 5732 5730 5729 5728 5727 5727 5726 5726 5726 5726 5725 5726 5726 5726 5725 5725 5724 5724 5725 5725 5725 5725 5726 5727 5727 5727 5727 5728 5728 5729 5730 5730 5731 5731 5732 5733 5733 5733 5735 5740 5743 5748 5755 5760 5762 5761 5760 5760 5763 5767 5770 5772 5775 5779 5781 5784 5788 5789 5792 5796 5799 5802 5805 5807 5809 5811 5814 5815 5815 5820 5825 5826 5826